Wind_Speed
55 54 53 53 53 52 52 53 53 52 51 50 49 48 48 47 47 48 47 47 46 45 45 45 45 45 44 44 43 43 43 43 43 43 43 43 42 43
55 55 55 55 54 54 53 54 54 53 52 50 50 50 49 49 49 49 48 49 48 47 47 47 47 46 46 46 45 45 44 44 44 44 44 44 44 44
57 56 55 55 55 54 53 53 54 54 53 52 51 51 51 50 50 50 50 49 49 49 48 48 48 48 48 48 48 47 47 46 46 46 46 46 46 46
58 58 56 55 55 55 54 55 55 54 53 53 52 51 51 50 50 51 51 51 51 50 50 50 50 50 49 49 49 49 50 49 48 48 48 48 48 47
60 59 57 57 55 55 56 56 56 56 56 55 54 53 52 51 51 51 51 51 52 52 52 52 52 52 51 51 50 51 51 51 51 50 50 50 50 50
60 59 59 58 57 57 57 57 56 56 56 56 56 55 54 53 53 52 52 52 52 53 53 53 53 52 53 53 53 53 53 52 52 52 52 52 52 52
59 59 60 59 59 58 58 58 57 57 56 56 57 56 55 54 54 54 54 53 53 53 54 54 54 54 53 54 54 54 54 54 54 54 54 54 54 54
60 59 60 60 60 59 59 58 58 57 57 56 56 56 55 54 54 54 54 54 54 54 54 54 55 54 54 55 55 55 55 56 56 56 55 55 55 55
59 58 58 59 59 59 58 57 56 57 57 56 56 56 55 54 54 54 55 55 55 56 56 55 55 55 55 56 56 56 56 56 56 56 56 55 55 56
58 58 58 58 58 58 58 57 56 56 56 57 57 56 56 55 55 55 56 56 56 57 57 56 55 55 55 56 57 56 56 56 56 56 55 55 55 55
59 58 56 56 56 56 57 58 57 56 56 55 56 57 57 57 57 57 58 57 57 57 57 57 57 56 56 55 56 56 56 56 56 56 56 56 57 57
58 57 55 55 55 56 56 57 57 57 56 55 55 56 56 57 58 58 58 58 58 57 57 57 57 57 56 56 56 57 57 57 57 57 57 57 58 58
55 56 56 55 55 56 57 57 57 57 56 55 55 55 56 57 57 57 58 58 58 58 58 57 57 57 57 56 57 57 57 57 57 57 57 58 58 58
53 54 55 56 56 56 56 56 57 57 57 57 56 55 56 56 57 57 57 57 58 58 58 57 56 56 56 56 56 56 57 57 57 57 57 57 57 58
51 52 53 55 56 56 56 56 56 57 58 57 56 56 56 56 57 56 56 56 56 56 56 56 55 54 54 54 54 55 55 56 56 56 57 57 57 57
49 49 50 52 53 54 55 56 56 56 57 57 56 56 56 56 56 56 56 55 55 54 54 54 54 54 54 54 54 54 54 54 55 56 56 56 56 56
48 48 48 48 49 50 51 53 53 54 55 56 55 54 53 54 54 54 54 53 53 53 52 53 53 53 54 54 54 54 54 54 54 55 55 55 55 55
46 46 47 47 47 48 49 50 51 52 53 54 53 53 52 52 52 51 52 52 52 52 52 52 53 53 53 53 53 53 53 53 53 53 53 53 52 52
45 45 46 46 47 47 48 48 49 50 51 51 51 50 50 51 52 51 51 51 51 51 51 52 52 52 51 51 52 52 52 52 51 51 51 51 50 50
44 44 44 45 45 46 46 47 47 48 49 49 49 49 49 50 50 50 49 49 49 49 50 50 50 50 51 51 51 51 51 50 49 49 49 49 48 48
42 42 43 43 44 44 44 45 46 46 46 47 48 48 48 48 48 49 49 48 48 48 48 48 48 49 49 49 49 48 48 48 48 47 47 46 46 46
41 41 42 42 43 43 43 44 45 45 45 45 46 46 46 46 46 47 47 47 47 47 47 46 46 46 46 46 46 46 46 46 46 46 46 46 45 45
39 39 40 41 42 42 43 44 44 45 45 45 45 45 45 46 45 45 45 45 45 45 46 46 45 46 46 46 45 45 45 45 45 45 45 45 46 45
Wind_Direction
254 255 255 256 256 254 253 252 253 253 254 254 255 255 255 256 257 257 258 259 259 259 260 262 263 263 263 263 264 265 266 267 267 268 268 269 269 270
254 256 255 255 255 255 254 252 252 252 252 253 254 254 254 255 256 257 258 259 259 259 259 261 262 263 263 263 264 264 266 267 268 268 268 269 269 271
255 256 255 255 254 254 253 252 250 251 252 252 253 254 254 254 255 256 257 258 258 259 259 260 262 262 263 264 264 264 265 267 268 268 269 269 270 271
255 255 255 255 254 253 253 252 251 251 252 253 253 254 254 255 256 256 257 257 258 259 260 260 261 262 263 263 264 265 266 267 268 269 270 270 270 271
255 254 254 254 253 253 253 252 251 251 252 253 254 255 255 256 256 257 257 258 258 259 260 260 261 262 263 263 264 266 267 268 269 270 270 271 271 271
254 254 253 253 253 253 253 252 252 252 253 254 254 255 255 256 257 258 258 258 259 259 259 260 262 262 262 263 265 266 267 268 269 270 271 271 271 272
254 254 253 253 253 254 254 253 253 253 254 254 254 254 254 255 258 258 257 258 258 260 261 261 261 261 262 263 266 267 268 268 269 270 271 271 271 272
255 254 253 252 253 254 254 253 252 253 254 254 254 254 254 256 257 257 258 257 258 260 261 262 262 262 263 265 266 268 268 269 269 270 270 271 271 272
255 254 253 252 253 253 253 252 252 252 253 253 254 254 254 255 256 256 257 257 259 260 260 261 262 263 264 265 267 268 269 269 269 270 270 271 272 272
254 254 253 253 252 252 251 251 251 252 252 253 254 253 254 255 256 257 257 258 259 259 260 262 262 263 265 266 267 268 269 269 269 269 270 271 272 272
253 253 252 252 251 251 251 251 252 252 253 254 254 254 254 256 256 257 259 259 259 260 261 262 263 264 265 266 266 267 268 268 269 269 270 271 272 273
252 251 250 251 251 251 251 252 252 252 253 253 254 254 255 257 258 258 259 259 260 260 261 262 263 264 265 265 265 266 267 268 268 269 269 271 272 273
250 250 250 251 252 252 252 252 252 251 252 253 253 254 256 258 258 259 259 259 260 260 261 262 263 264 264 264 264 265 266 267 268 269 270 271 272 273
250 250 250 251 252 252 252 251 251 252 252 253 253 254 256 257 257 258 259 259 260 260 261 262 263 264 264 264 264 265 266 267 268 269 270 271 272 273
251 250 251 251 252 252 252 252 252 252 253 253 254 255 256 256 256 257 258 259 260 260 261 261 262 262 263 264 264 265 266 267 268 269 270 270 271 273
252 251 250 250 251 252 252 252 252 253 253 253 253 255 256 255 256 257 258 259 260 260 261 261 261 261 263 264 265 265 266 267 268 269 270 270 271 272
251 250 250 250 251 252 251 252 252 252 252 252 253 254 255 255 255 256 257 258 258 259 260 261 261 262 263 264 265 266 267 267 268 268 269 270 271 272
252 251 250 250 251 252 252 252 252 252 252 252 252 253 253 254 255 256 257 257 259 260 260 260 261 262 263 264 265 266 267 267 268 268 269 270 271 272
254 253 252 251 251 252 251 251 251 252 252 252 253 253 253 253 254 256 257 258 259 259 259 260 261 262 263 263 264 265 266 267 267 268 268 269 270 271
254 253 252 252 252 252 252 251 251 250 251 252 252 253 253 254 255 256 257 257 258 259 260 261 262 263 264 265 265 265 265 266 267 268 268 268 269 270
254 253 252 251 251 252 251 250 249 250 251 252 253 253 254 254 255 255 256 257 258 259 260 261 262 263 264 264 264 264 264 265 266 268 269 269 270 270
256 254 253 253 252 251 251 250 250 251 252 252 252 252 253 254 255 255 256 257 257 258 259 260 261 262 262 263 264 263 264 266 267 268 270 270 270 271
256 255 254 254 252 251 252 252 252 252 253 252 252 253 254 254 254 255 256 256 257 258 260 259 260 261 262 263 263 264 264 266 267 269 270 271 272 272
Height
5658 5661 5664 5667 5670 5673 5676 5680 5684 5688 5692 5695 5698 5700 5703 5705 5708 5710 5713 5715 5717 5719 5720 5722 5723 5725 5726 5727 5728 5729 5730 5730 5730 5731 5731 5731 5732 5732
5643 5646 5649 5652 5655 5658 5661 5665 5669 5673 5678 5682 5685 5687 5690 5693 5695 5698 5700 5702 5704 5706 5708 5710 5711 5713 5714 5715 5716 5717 5718 5718 5718 5719 5719 5719 5719 5720
5628 5631 5634 5637 5640 5643 5646 5650 5654 5658 5663 5668 5671 5674 5677 5680 5682 5684 5687 5689 5692 5694 5695 5697 5698 5700 5701 5702 5703 5704 5705 5705 5706 5706 5706 5706 5707 5707
5613 5616 5619 5622 5625 5629 5632 5636 5639 5643 5648 5653 5656 5659 5663 5665 5668 5671 5674 5676 5678 5680 5682 5684 5685 5687 5688 5689 5690 5691 5692 5692 5693 5693 5694 5695 5694 5694
5597 5601 5604 5607 5611 5613 5617 5621 5625 5629 5633 5638 5641 5645 5648 5651 5654 5657 5659 5662 5664 5666 5668 5670 5672 5673 5674 5675 5676 5677 5678 5680 5680 5681 5680 5680 5680 5680
5581 5585 5588 5592 5595 5598 5602 5606 5610 5614 5618 5622 5626 5630 5633 5636 5639 5642 5645 5648 5650 5652 5654 5656 5657 5659 5660 5661 5663 5664 5665 5665 5665 5666 5666 5666 5666 5666
5565 5569 5573 5576 5579 5582 5586 5590 5594 5598 5602 5607 5611 5615 5618 5621 5625 5627 5630 5632 5635 5637 5639 5641 5643 5645 5645 5647 5648 5648 5649 5650 5650 5651 5651 5651 5651 5651
5549 5553 5556 5560 5563 5567 5570 5574 5579 5583 5587 5591 5595 5599 5603 5606 5609 5612 5614 5617 5621 5624 5624 5626 5628 5629 5631 5632 5633 5633 5634 5635 5635 5635 5636 5636 5636 5635
5532 5536 5540 5543 5547 5551 5555 5558 5563 5567 5571 5576 5579 5583 5587 5591 5594 5597 5599 5601 5605 5607 5608 5611 5613 5614 5616 5617 5617 5618 5618 5619 5620 5620 5620 5620 5620 5620
5516 5519 5523 5527 5531 5535 5539 5543 5547 5552 5556 5560 5564 5568 5571 5574 5577 5580 5582 5585 5588 5591 5592 5595 5597 5599 5600 5601 5602 5602 5603 5603 5604 5604 5604 5604 5604 5604
5499 5503 5507 5511 5516 5519 5523 5528 5532 5536 5539 5543 5547 5550 5554 5558 5561 5563 5566 5569 5572 5575 5576 5579 5581 5582 5584 5585 5586 5586 5587 5587 5588 5588 5589 5588 5588 5588
5484 5488 5492 5496 5499 5503 5507 5512 5516 5521 5524 5527 5531 5534 5538 5541 5544 5546 5549 5552 5555 5558 5560 5562 5564 5565 5567 5569 5569 5570 5570 5571 5572 5572 5572 5572 5572 5571
5467 5472 5476 5480 5483 5487 5491 5496 5500 5504 5508 5511 5514 5518 5522 5525 5527 5530 5532 5535 5539 5542 5544 5545 5547 5548 5550 5552 5553 5553 5554 5554 5555 5555 5556 5556 5555 5555
5452 5456 5460 5464 5468 5471 5475 5480 5483 5487 5491 5495 5499 5502 5506 5509 5511 5513 5516 5518 5521 5525 5526 5528 5530 5531 5533 5534 5536 5537 5538 5538 5539 5539 5539 5539 5539 5538
5437 5441 5444 5448 5452 5455 5460 5463 5467 5471 5475 5479 5483 5486 5489 5492 5494 5497 5499 5502 5504 5506 5509 5510 5513 5514 5516 5518 5520 5521 5522 5522 5522 5523 5523 5523 5522 5522
5422 5425 5429 5432 5436 5440 5444 5447 5451 5455 5459 5463 5466 5469 5472 5475 5478 5481 5483 5485 5488 5490 5492 5494 5496 5498 5500 5501 5503 5504 5505 5506 5506 5506 5507 5507 5506 5506
5407 5411 5414 5418 5421 5424 5428 5432 5435 5439 5442 5446 5450 5453 5456 5459 5462 5464 5467 5469 5471 5474 5476 5478 5479 5481 5483 5485 5486 5488 5489 5490 5490 5490 5491 5491 5491 5490
5393 5397 5400 5403 5407 5410 5413 5417 5420 5423 5427 5430 5434 5437 5440 5443 5446 5448 5451 5453 5456 5458 5460 5462 5464 5465 5467 5469 5470 5471 5472 5473 5474 5474 5475 5475 5476 5475
5379 5383 5386 5389 5392 5396 5399 5402 5405 5409 5412 5415 5418 5422 5424 5427 5430 5433 5435 5438 5440 5442 5445 5446 5448 5450 5451 5454 5455 5456 5457 5458 5458 5459 5459 5460 5461 5461
5366 5369 5372 5375 5378 5382 5385 5388 5391 5394 5397 5401 5404 5407 5410 5412 5415 5418 5420 5423 5425 5427 5429 5431 5433 5434 5436 5439 5440 5441 5441 5442 5443 5443 5444 5445 5446 5446
5353 5356 5358 5362 5365 5368 5371 5374 5377 5381 5384 5386 5389 5392 5395 5398 5401 5403 5406 5407 5410 5412 5414 5417 5418 5419 5420 5422 5424 5426 5427 5427 5428 5429 5430 5431 5432 5432
5340 5343 5345 5348 5351 5355 5358 5361 5364 5367 5370 5373 5376 5379 5381 5384 5386 5389 5391 5393 5395 5398 5400 5402 5403 5404 5406 5408 5410 5412 5413 5413 5413 5414 5415 5417 5417 5418
5328 5330 5333 5335 5338 5341 5345 5348 5351 5354 5356 5359 5362 5365 5367 5370 5372 5375 5377 5379 5381 5383 5385 5387 5388 5390 5392 5394 5396 5398 5399 5400 5400 5401 5402 5402 5403 5403